Location: *
(49.8044°N, 4.0558°E)
Time: 16:39:56
(UTC+00:00)

STARLINK-1225 - Pass Details

Date: 09 April 2020
Orbit: 549 x 550 km, 53.0° (Epoch: 02 June)

Event Time Altitude Azimuth Distance (km) Brightness Sun altitude
Rises 20:42:34 0° 292° (WNW) 2,674 8.4 -19.9°
Reaches altitude 10° 20:44:51 10° 287° (WNW) 1,781 7.2 -20.2°
Maximum altitude 20:48:43 46° 214° (SSW) 719 4.1 -20.6°
Enters shadow 20:49:01 45° 199° (SSW) 730 4.0 -20.7°
